Time,TemperatureF,DewpointF,PressureIn,WindDirection,WindDirectionDegrees,WindSpeedMPH,WindSpeedGustMPH,Humidity,HourlyPrecipIn,Conditions,Clouds,dailyrainin,SoftwareType,DateUTC
2013-03-27 00:01:00,45.5,12.5,30.03,NNW,345,0.0,8.0,26,0.00,CLR,,0.00,WeatherDisplay:10.37,2013-03-27 05:01:00,
2013-03-27 00:31:00,44.6,12.6,30.02,North,7,0.0,5.0,27,0.00,CLR,,0.00,WeatherDisplay:10.37,2013-03-27 05:31:00,
2013-03-27 01:01:00,40.2,11.2,30.05,North,7,0.0,4.0,30,0.00,CLR,,0.00,WeatherDisplay:10.37,2013-03-27 06:01:00,
2013-03-27 01:31:00,35.8,12.1,30.06,North,6,0.0,3.0,37,0.00,CLR,,0.00,WeatherDisplay:10.37,2013-03-27 06:31:00,
2013-03-27 02:01:00,34.8,13.4,30.06,North,6,1.0,3.0,41,0.00,CLR,,0.00,WeatherDisplay:10.37,2013-03-27 07:01:00,
2013-03-27 02:31:00,37.6,16.0,30.02,NNE,13,0.0,6.0,41,0.00,CLR,,0.00,WeatherDisplay:10.37,2013-03-27 07:31:00,
2013-03-27 03:01:00,41.3,15.7,29.98,NE,37,0.0,6.0,35,0.00,CLR,,0.00,WeatherDisplay:10.37,2013-03-27 08:01:00,
2013-03-27 03:31:00,38.6,15.1,29.97,NE,37,1.0,3.0,38,0.00,CLR,,0.00,WeatherDisplay:10.37,2013-03-27 08:31:00,
2013-03-27 04:00:00,33.9,14.2,30.01,NE,37,0.0,3.0,44,0.00,CLR,,0.00,WeatherDisplay:10.37,2013-03-27 09:00:00,
2013-03-27 04:30:00,31.3,13.9,30.00,NE,40,0.0,5.0,48,0.00,CLR,,0.00,WeatherDisplay:10.37,2013-03-27 09:30:00,
2013-03-27 05:00:00,29.8,14.3,30.02,NE,40,1.0,5.0,52,0.00,CLR,,0.00,WeatherDisplay:10.37,2013-03-27 10:00:00,
2013-03-27 05:30:00,29.7,15.1,30.03,NE,40,0.0,4.0,54,0.00,CLR,,0.00,WeatherDisplay:10.37,2013-03-27 10:30:00,
2013-03-27 06:00:00,31.0,15.4,30.02,ESE,108,0.0,6.0,52,0.00,CLR,,0.00,WeatherDisplay:10.37,2013-03-27 11:00:00,
2013-03-27 06:30:00,31.0,16.3,30.03,ESE,114,1.0,6.0,54,0.00,CLR,,0.00,WeatherDisplay:10.37,2013-03-27 11:30:00,
2013-03-27 07:00:00,30.7,17.3,30.04,ESE,114,0.0,6.0,57,0.00,CLR,,0.00,WeatherDisplay:10.37,2013-03-27 12:00:00,
2013-03-27 07:30:00,31.9,17.5,30.07,ESE,114,0.0,5.0,55,0.00,CLR,,0.00,WeatherDisplay:10.37,2013-03-27 12:30:00,
2013-03-27 08:00:00,31.3,17.8,30.08,ESE,114,1.0,5.0,57,0.00,CLR,,0.00,WeatherDisplay:10.37,2013-03-27 13:00:00,
2013-03-27 08:30:00,34.7,19.7,30.07,ESE,114,1.0,5.0,54,0.00,CLR,,0.00,WeatherDisplay:10.37,2013-03-27 13:30:00,
2013-03-27 09:00:00,44.4,22.2,30.01,ESE,114,0.0,3.0,41,0.00,CLR,,0.00,WeatherDisplay:10.37,2013-03-27 14:00:00,
2013-03-27 09:30:00,58.3,22.6,29.95,ESE,113,0.0,2.0,25,0.00,CLR,,0.00,WeatherDisplay:10.37,2013-03-27 14:30:00,
2013-03-27 10:00:00,64.2,19.8,29.92,East,98,1.0,4.0,18,0.00,CLR,,0.00,WeatherDisplay:10.37,2013-03-27 15:00:00,
2013-03-27 10:30:00,65.8,19.7,29.92,SW,215,3.0,9.0,17,0.00,CLR,,0.00,WeatherDisplay:10.37,2013-03-27 15:30:00,
2013-03-27 11:00:00,66.3,20.1,29.92,West,272,6.0,12.0,17,0.00,CLR,,0.00,WeatherDisplay:10.37,2013-03-27 16:00:00,
2013-03-27 11:30:00,68.6,19.1,29.91,NNW,328,2.0,12.0,15,0.00,CLR,,0.00,WeatherDisplay:10.37,2013-03-27 16:30:00,
2013-03-27 12:00:00,70.3,18.8,29.91,WSW,251,5.0,8.0,14,0.00,CLR,,0.00,WeatherDisplay:10.37,2013-03-27 17:00:00,
2013-03-27 12:30:00,71.1,17.7,29.94,NNW,342,6.0,10.0,13,0.00,CLR,,0.00,WeatherDisplay:10.37,2013-03-27 17:30:00,
2013-03-27 13:00:00,71.1,15.9,29.94,WNW,300,1.0,12.0,12,0.00,CLR,,0.00,WeatherDisplay:10.37,2013-03-27 18:00:00,
2013-03-27 13:30:00,71.5,18.0,29.93,WNW,282,3.0,12.0,13,0.00,CLR,,0.00,WeatherDisplay:10.37,2013-03-27 18:30:00,
2013-03-27 14:00:00,70.9,17.5,29.92,WNW,283,0.0,10.0,13,0.00,CLR,,0.00,WeatherDisplay:10.37,2013-03-27 19:00:00,
2013-03-27 14:30:00,71.1,19.5,29.88,WNW,290,12.0,21.0,14,0.00,CLR,,0.00,WeatherDisplay:10.37,2013-03-27 19:30:00,
2013-03-27 15:00:00,72.1,21.8,29.88,SSW,202,6.0,13.0,15,0.00,CLR,,0.00,WeatherDisplay:10.37,2013-03-27 20:00:00,
2013-03-27 15:30:00,71.5,19.8,29.92,NW,320,1.0,8.0,14,0.00,CLR,,0.00,WeatherDisplay:10.37,2013-03-27 20:30:00,
2013-03-27 16:00:00,70.3,20.4,29.93,SW,233,2.0,14.0,15,0.00,CLR,,0.00,WeatherDisplay:10.37,2013-03-27 21:00:00,
2013-03-27 16:30:00,69.3,22.6,29.93,SE,128,3.0,11.0,17,0.00,CLR,,0.00,WeatherDisplay:10.37,2013-03-27 21:30:00,
2013-03-27 17:00:00,71.6,24.5,29.91,West,262,2.0,10.0,17,0.00,CLR,,0.00,WeatherDisplay:10.37,2013-03-27 22:00:00,
2013-03-27 17:30:00,70.8,22.3,29.92,SW,225,5.0,18.0,16,0.00,CLR,,0.00,WeatherDisplay:10.37,2013-03-27 22:30:00,
2013-03-27 18:00:00,70.9,20.9,29.92,WSW,254,6.0,15.0,15,0.00,CLR,,0.00,WeatherDisplay:10.37,2013-03-27 23:00:00,
2013-03-27 18:30:00,69.4,21.2,29.92,West,264,2.0,14.0,16,0.00,CLR,,0.00,WeatherDisplay:10.37,2013-03-27 23:30:00,
2013-03-27 19:00:00,67.8,19.9,29.94,WSW,247,5.0,13.0,16,0.00,CLR,,0.00,WeatherDisplay:10.37,2013-03-28 00:00:00,
2013-03-27 19:30:00,66.3,20.1,29.94,SW,214,5.0,10.0,17,0.00,CLR,,0.00,WeatherDisplay:10.37,2013-03-28 00:30:00,
2013-03-27 20:00:00,65.2,20.6,29.94,South,173,1.0,7.0,18,0.00,CLR,,0.00,WeatherDisplay:10.37,2013-03-28 01:00:00,
2013-03-27 20:31:00,61.9,20.4,29.84,SW,217,0.0,6.0,20,0.00,CLR,,0.00,WeatherDisplay:10.37,2013-03-28 01:31:00,
2013-03-27 21:01:00,53.3,18.4,29.90,SW,229,0.0,2.0,25,0.00,CLR,,0.00,WeatherDisplay:10.37,2013-03-28 02:01:00,
2013-03-27 21:31:00,50.1,18.2,29.86,SW,229,0.0,1.0,28,0.00,CLR,,0.00,WeatherDisplay:10.37,2013-03-28 02:31:00,
2013-03-27 22:01:00,46.7,17.6,29.88,SW,229,0.0,0.0,31,0.00,CLR,,0.00,WeatherDisplay:10.37,2013-03-28 03:01:00,
2013-03-27 22:31:00,43.7,17.8,29.89,SW,229,0.0,0.0,35,0.00,CLR,,0.00,WeatherDisplay:10.37,2013-03-28 03:31:00,
2013-03-27 23:01:00,42.3,18.5,29.91,SW,229,0.0,3.0,38,0.00,CLR,,0.00,WeatherDisplay:10.37,2013-03-28 04:01:00,
2013-03-27 23:31:00,42.3,18.5,29.91,SW,229,0.0,3.0,38,0.00,CLR,,0.00,WeatherDisplay:10.37,2013-03-28 04:31:00,